sat.trackr.live / text

‹ back to catalog

STARLINK-30988

NORAD 58529 · 2023-191X

PAYLOAD ACTIVE UNKNOWN

§ Identity

Operator
Country
US
Launch date
2023-12-07
Launch site
AFETR
Launch vehicle
Mass (kg)
RCS (m²)

Purposes: comms

External: N2YO · Heavens-Above · Gunter

§ Orbital elements

Epoch: 2026-09-20T05:22:27.338592Z

Period
94.27 min
Inclination
43.0041°
Eccentricity
0.0001266
Mean motion
15.27570117 rev/d
Perigee alt
482.2 km
Apogee alt
483.9 km
Semi-major
6,861.2 km
B*
3.2106e-5
RAAN
84.7306°
Arg perigee
257.2597°
Mean anomaly
102.8113°
Rev number
15,522

§ Raw data

STARLINK-309881 58529U 23191X   26263.22392753  .00000621  00000+0  32106-4 0  99912 58529  43.0041  84.7306 0001266 257.2597 102.8113 15.27570117155220

JSON: /api/v1/satellites/58529 · /tle

For live sub-satellite position, see the globe view (requires WebGL).

§ Visibility from observer

Set your observer location to see the next 7 days of passes ≥ 10°. The values pass through the URL so the page stays shareable.

No JS? Fill the form by hand. The geolocation button needs JavaScript.